DW9837 Weather Reports


Display with metric or nautical units.
time (UTC)temp
F
wind
direction
speed
MPH
gust
MPH
rain 1hr
in
rain 24hr
in
rain mn
in
humidity
%
barometer
mb
20260507000028 55 274 0.0 3.0 0.00 0.27 0.27 93 1007.9
20260506234538 55 295 1.0 5.0 0.00 0.27 0.27 93 1007.8
20260506233029 55 313 1.0 4.0 0.00 0.27 0.27 93 1007.8
20260506231531 55 284 2.0 5.0 0.00 0.27 0.27 93 1007.9
20260506230025 55 163 1.0 7.0 0.00 0.27 0.27 93 1007.8
20260506224529 56 337 2.0 9.0 0.01 0.27 0.27 94 1007.8
20260506223024 56 296 2.0 8.0 0.02 0.27 0.27 94 1007.6
20260506221523 56 132 1.0 7.0 0.04 0.27 0.27 94 1007.6
20260506220022 56 307 2.0 7.0 0.09 0.27 0.27 94 1007.6
20260506214522 56 13 2.0 6.0 0.15 0.26 0.26 94 1007.6
20260506213022 56 236 3.0 9.0 0.16 0.25 0.25 93 1007.6
20260506211519 56 299 1.0 10.0 0.15 0.22 0.22 92 1007.9
20260506210020 56 246 0.0 3.0 0.10 0.17 0.17 92 1008.1
20260506204516 56 272 1.0 4.0 0.05 0.11 0.11 91 1008.4
20260506203014 56 176 1.0 4.0 0.03 0.09 0.09 91 1008.2
20260506201519 56 193 2.0 9.0 0.01 0.07 0.07 91 1008.3
20260506200012 56 177 1.0 6.0 0.02 0.07 0.07 90 1008.2
20260506194511 56 175 3.0 7.0 0.04 0.06 0.06 90 1008.4
20260506193007 56 154 0.0 4.0 0.06 0.06 0.06 91 1008.7
20260506191507 56 238 2.0 7.0 0.06 0.06 0.06 89 1008.9
20260506190005 57 213 2.0 7.0 0.05 0.05 0.05 89 1008.8
20260506184502 58 173 4.0 11.0 0.02 0.02 0.02 88 1009.1
20260506183111 58 182 2.0 11.0 0.00 0.00 0.00 85 1009.2
20260506181601 59 321 2.0 7.0 0.00 0.00 0.00 82 1009.5
20260506180057 60 200 2.0 8.0 0.00 0.00 0.00 80 1009.9
20260506174608 60 317 1.0 6.0 0.00 0.00 0.00 79 1010.0
20260506173057 61 273 0.0 5.0 0.00 0.00 0.00 77 1010.2
20260506171602 61 248 1.0 4.0 0.00 0.00 0.00 78 1010.1
20260506170052 61 191 3.0 9.0 0.00 0.00 0.00 77 1010.5
20260506164557 62 165 1.0 7.0 0.00 0.00 0.00 75 1010.5
20260506163104 62 193 3.0 10.0 0.00 0.00 0.00 75 1010.5
20260506161549 63 270 1.0 9.0 0.00 0.00 0.00 75 1010.9
20260506160051 62 166 3.0 15.0 0.00 0.00 0.00 76 1011.1
20260506154552 63 264 6.0 19.0 0.00 0.00 0.00 75 1011.3
20260506153050 63 189 5.0 14.0 0.00 0.00 0.00 75 1011.3
20260506151547 64 329 3.0 14.0 0.00 0.00 0.00 73 1011.2
20260506150045 64 205 4.0 13.0 0.00 0.00 0.00 73 1011.2
20260506144545 63 169 6.0 17.0 0.00 0.00 0.00 74 1011.2
20260506143042 62 285 3.0 13.0 0.00 0.00 0.00 77 1011.5
20260506141541 62 208 2.0 13.0 0.00 0.00 0.00 76 1011.3
20260506140041 62 34 5.0 16.0 0.00 0.00 0.00 76 1011.2
20260506134540 61 315 3.0 12.0 0.00 0.00 0.00 77 1011.1
20260506133041 63 239 1.0 12.0 0.00 0.00 0.00 76 1010.9
20260506131538 62 248 3.0 10.0 0.00 0.00 0.00 77 1011.2
20260506130038 62 197 6.0 15.0 0.00 0.00 0.00 77 1011.5
20260506124532 61 271 2.0 12.0 0.00 0.00 0.00 78 1011.5
20260506123031 61 256 2.0 11.0 0.00 0.00 0.00 79 1011.5
20260506121530 60 201 3.0 10.0 0.00 0.00 0.00 80 1011.6
20260506120028 60 226 3.0 11.0 0.00 0.00 0.00 81 1011.4
20260506114525 59 183 3.0 12.0 0.00 0.00 0.00 82 1011.5
20260506113025 59 171 3.0 11.0 0.00 0.00 0.00 82 1011.5
20260506111528 58 251 2.0 9.0 0.00 0.00 0.00 83 1011.5
20260506110022 58 274 2.0 10.0 0.00 0.00 0.00 85 1011.7
20260506104522 57 163 1.0 10.0 0.00 0.00 0.00 86 1011.4
20260506103020 57 267 3.0 10.0 0.00 0.00 0.00 86 1011.5
20260506101519 57 208 3.0 6.0 0.00 0.00 0.00 86 1011.5
20260506100017 57 199 3.0 9.0 0.00 0.00 0.00 86 1011.3
20260506094517 57 297 3.0 9.0 0.00 0.00 0.00 87 1011.2
20260506093014 57 265 2.0 7.0 0.00 0.00 0.00 87 1011.3
20260506091514 57 251 2.0 9.0 0.00 0.00 0.00 87 1011.3
20260506090011 57 205 2.0 8.0 0.00 0.00 0.00 86 1011.4
20260506084510 57 176 2.0 11.0 0.00 0.00 0.00 86 1011.5
20260506083015 57 255 2.0 5.0 0.00 0.00 0.00 85 1011.5
20260506081508 57 196 1.0 10.0 0.00 0.00 0.00 85 1011.5
20260506073005 57 227 1.0 8.0 0.00 0.00 0.00 84 1011.8
20260506071503 57 252 1.0 8.0 0.00 0.00 0.00 84 1011.7
20260506061554 57 197 3.0 9.0 0.00 0.00 0.00 84 1012.1
20260506050103 58 283 2.0 8.0 0.00 0.00 0.00 81 1012.5
20260506044545 58 254 1.0 7.0 0.00 0.00 0.00 80 1012.6
20260506043040 58 252 1.0 6.0 0.00 0.00 0.00 79 1012.6
20260506041552 59 339 2.0 8.0 0.00 0.00 0.00 79 1012.6
20260506040035 59 234 3.0 15.0 0.00 0.00 0.00 78 1012.5
20260506034548 59 293 2.0 12.0 0.00 0.00 0.00 78 1012.7
20260506033033 58 266 3.0 8.0 0.00 0.00 0.00 78 1012.5
20260506031533 58 194 1.0 6.0 0.00 0.00 0.00 77 1012.3
20260506030036 59 249 2.0 6.0 0.00 0.00 0.00 76 1012.3
20260506024533 59 319 1.0 7.0 0.00 0.00 0.00 76 1012.4
20260506023030 59 272 1.0 5.0 0.00 0.00 0.00 76 1012.2
20260506021529 59 284 2.0 6.0 0.00 0.00 0.00 75 1012.3
20260506020027 59 289 1.0 3.0 0.00 0.00 0.00 75 1012.2
20260506014527 59 336 2.0 10.0 0.00 0.00 0.00 74 1012.1
20260506013037 59 268 2.0 7.0 0.00 0.00 0.00 74 1012.0
20260506011527 59 244 3.0 9.0 0.00 0.00 0.00 74 1011.6
20260506010027 58 216 2.0 6.0 0.00 0.00 0.00 75 1011.7
20260506004523 59 266 3.0 7.0 0.00 0.00 0.00 75 1011.5
20260506003024 59 118 3.0 10.0 0.00 0.00 0.00 74 1011.2
20260506001523 59 291 1.0 7.0 0.00 0.00 0.00 74 1010.9